Regional Weather Roundup
Issued by NWS Cleveland, OH

Home | Current Version | Previous Version | Text Only | Print | Product List | Glossary Off
Versions: 1 2 3 4 5 6 7 8 9 10 11 12 13 14 15 16 17 18 19 20 21 22 23 24 25 26 27 28 29 30 31 32 33 34 35 36 37 38 39 40 41 42 43 44 45 46 47 48 49 50

000
ASUS41 KCLE 290800
RWRCLE
OHIO REGIONAL WEATHER ROUNDUP
NATIONAL WEATHER SERVICE WILMINGTON, OH
400 AM EDT TUE JUL 29 2014

NOTE: "FAIR" INDICATES FEW OR NO CLOUDS BELOW 12,000 FEET WITH NO
SIGNIFICANT WEATHER AND/OR OBSTRUCTIONS TO VISIBILITY.

OHZ001>008-015>018-024>027-034-035-043-044-290900-
   NORTHWEST OHIO

CITY           SKY/WX    TMP DP  RH WIND       PRES   REMARKS
DEFIANCE       CLEAR     52  48  86 VRB3      30.02S
FINDLAY        PTCLDY    55  49  80 NW7       29.99S
TOLEDO EXPRESS CLEAR     49  47  93 CALM      30.00S
TOLEDO METCALF CLEAR     53  46  77 W3        30.00F
LIMA           PTCLDY    54  51  90 N5        30.00F
$$

OHZ009>014-019>023-028>033-038-089-290900-
   NORTHEAST OHIO

CITY           SKY/WX    TMP DP  RH WIND       PRES   REMARKS
CLE-HOPKINS    MOCLDY    55  49  80 SW6       29.97F
CLE-LAKEFRONT  CLOUDY    62  49  62 NW13      29.94F
CUY CO. ARPT   NOT AVBL
LORAIN-ELYRIA  PTCLDY    55  48  77 SW5       29.97F
ASHTABULA      CLOUDY    57  50  77 CALM      29.93F
AKRON-CANTON   PTCLDY    54  49  83 W3        29.96F
WOOSTER        NOT AVBL
MANSFIELD      PTCLDY    53  52  96 CALM      29.98F
YOUNGSTOWN     CLOUDY    54  48  80 W5        29.94F
$$

OHZ042-051>053-060>062-070>072-077>081-290900-
  SOUTHWEST OHIO

CITY           SKY/WX    TMP DP  RH WIND       PRES   REMARKS
CINC-COVINGTON CLEAR     52  48  86 W3        30.01F
CINC-LUNKEN    PTCLDY    54  51  90 CALM      30.02F
HAMILTON       PTCLDY    53  51  93 CALM      30.02F
DAYTON         NOT AVBL
WRIGHT-PAT AFB CLEAR     54  51  90 NW7       29.99F
DAYTON GENERAL PTCLDY    54  50  86 N5        29.99F
WILMINGTON     MOCLDY    54  49  83 NW8       29.99S
$$

OHZ036-037-039>041-045>050-054>059-063>069-073>076-082>088-290900-
  CENTRAL AND SOUTHEAST OHIO

CITY           SKY/WX    TMP DP  RH WIND       PRES   REMARKS
COLUMBUS       CLOUDY    62  54  74 NE7       29.96F
OSU AIRPORT    MOCLDY    58  55  90 N5        29.97S
BOLTON FIELD   NOT AVBL
RICKENBACK AFB NOT AVBL
NEWARK         CLOUDY    60  53  77 NE3       29.97F
MARION         MOCLDY    56  54  93 CALM      29.99S
LANCASTER      CLOUDY    60  57  89 CALM      29.97S
ZANESVILLE     CLOUDY    59  52  77 NE5       29.97S
NEW PHILLY     MOCLDY    54  52  93 CALM      29.98S
$$


USA.gov is the U.S. government's official web portal to all federal, state and local government web resources and services.